Simultaneous Nadir Overpasses (SNOs) Predictions

Prediction of SNOs between LANDSAT-8 and METOP-B Satellite Orbit:

Table of predicted SNOs for the next 14.0 days since TLE Epoch: 1/26/2017
Index Date (LANDSAT-8) Time (LANDSAT-8) Lat,Lon (LANDSAT-8) SZA (LANDSAT-8 ) Date (METOP-B) Time (METOP-B) Lat,Lon (METOP-B) SZA (METOP-B ) Distance(km) Time Diff (sec)
1 01/26/2017 17:12:29 81.08, -39.10 101.19 01/26/2017 17:11:16 81.08, -39.04 101.17 1.19 73
2 01/26/2017 18:01:55 -81.10, 128.85 78.78 01/26/2017 18:01:56 -81.09, 128.70 78.79 2.73 1
3 01/26/2017 18:51:07 81.40, -58.19 101.95 01/26/2017 18:52:21 81.26, -58.07 101.89 15.96 74
4 01/29/2017 12:46:42 81.07, 27.28 100.43 01/29/2017 12:45:36 81.07, 27.19 100.40 1.70 66
5 01/29/2017 13:36:08 -81.10,-164.74 79.53 01/29/2017 13:36:15 -81.10,-164.71 79.53 0.57 7
6
